#timestamp,LO_Frequency,Hit,StdDev 
1511362815.8,286046998.7,N
1511362835.7,286046998.5,N
1511362855.5,286047000.9,N
1511362875.3,286046998.2,N
1511362895.2,286047002.5,N
1511362915.9,286047001.6,N
1511362935.7,286047002.3,N
1511362955.6,286047001.5,N
1511362975.4,286047004.4,N
1511362995.2,286047002.0,N
1511363015.0,286047000.7,N
1511363015.9,286047000.7,N
1511363035.8,286047001.0,N
1511363055.6,286046997.8,N
1511363075.4,286046995.1,Y
1511363095.3,286046995.5,P
1511363115.1,286046994.5,N
1511363135.8,286046993.8,N
1511363155.7,286046996.2,N
1511363175.5,286046994.3,N
1511363195.3,286046994.7,N
1511363215.2,286046998.0,N
1511363235.9,286046997.2,N
1511363255.7,286046995.4,N
1511363275.6,286046995.4,N
1511363295.4,286046997.2,N
1511363315.2,286046999.5,N
1511363335.0,286046999.7,N
1511363336.0,286046999.7,N
1511363355.8,286047002.7,N
1511363375.6,286047002.1,N
1511363395.4,286047002.7,N
1511363415.3,286047000.7,N
1511363435.1,286046998.2,N
1511363455.8,286047001.2,N
1511363475.7,286046999.0,N
1511363495.5,286047000.8,N
1511363515.3,286047000.4,N
1511363535.2,286047000.3,N
1511363555.9,286046999.8,N
1511363575.7,286047000.4,N
1511363595.6,286046997.2,N
1511363615.4,286046999.3,N
1511363635.2,286046996.2,N
1511363655.0,286046995.9,N
1511363655.9,286046995.9,N
1511363675.8,286046995.3,N
1511363695.6,286046995.4,N
1511363715.4,286046997.7,N
1511363735.3,286046994.7,N
1511363755.1,286046994.8,N
1511363775.8,286046993.3,N
1511363795.7,286046997.6,N
1511363815.5,286046997.7,N
1511363835.3,286046997.7,N
1511363855.2,286046997.4,N
1511363875.9,286046996.7,N
1511363895.7,286047000.1,N
1511363915.6,286046998.8,N
1511363935.4,286047001.2,N
1511363955.2,286046995.2,N
1511363975.0,286046995.2,N
1511363976.0,286046995.2,N
1511363995.8,286046995.6,N
1511364015.6,286046996.3,N
1511364035.4,286046995.5,N
1511364055.3,286046995.9,N
1511364075.1,286046995.8,N
1511364095.8,286046996.1,N
1511364115.7,286046992.9,Y
1511364135.5,286046997.8,P
1511364155.3,286046999.5,N
1511364175.2,286046996.2,P
1511364195.0,286046995.4,Y
1511364195.9,286046995.4,P
1511364215.7,286046999.5,N
1511364235.6,286046998.1,N
1511364255.4,286046997.9,N
1511364275.2,286046997.8,N
1511364295.1,286046996.7,N
1511364296.0,286046996.7,N
1511364315.8,286046995.0,Y
1511364335.6,286046996.5,P
1511364355.5,286046995.7,P
1511364375.3,286046997.5,P
1511364395.1,286046998.0,N
1511364415.9,286046996.5,Y
1511364435.7,286046998.7,P
1511364455.5,286046999.2,N
1511364475.4,286046997.5,N
1511364495.2,286046997.1,Y
1511364515.0,286046998.5,P
1511364515.9,286046998.5,P
1511364535.8,286046998.7,P
1511364555.6,286047001.1,Y
1511364575.5,286047006.0,P
1511364595.3,286047004.1,N
1511364615.1,286047001.9,N
1511364635.8,286047003.9,N
1511364655.7,286047002.8,N
1511364675.5,286047001.3,N
1511364695.3,286047004.7,N
1511364715.2,286047007.1,Y
1511364735.0,286047004.3,P
1511364735.9,286047004.3,P
1511364755.7,286047005.2,P
1511364775.6,286047008.4,Y
1511364795.4,286047002.5,P
1511364815.2,286046998.6,N
1511364835.1,286046999.0,N
1511364836.0,286046999.0,N
1511364855.8,286046997.7,N
1511364875.6,286046995.1,N
1511364895.5,286046993.4,N
1511364915.3,286047002.5,N
1511364935.1,286047003.9,N
1511364955.9,286047005.2,N
1511364975.7,286047008.6,N
1511364995.5,286047010.8,N
1511365015.4,286047013.0,N
1511365035.2,286047020.0,Y
1511365055.0,286047014.0,P
1511365055.9,286047014.0,N
1511365075.8,286047012.3,N
1511365095.6,286047008.7,N
1511365115.4,286047007.9,N
1511365135.3,286047008.4,N
1511365155.1,286047007.0,N
1511365156.0,286047007.0,N
1511365175.8,286047004.5,N
1511365195.7,286047002.4,N
1511365215.5,286047002.4,N
1511365235.3,286047000.2,N
1511365255.1,286047002.1,N
1511365275.9,286047000.2,N
1511365295.7,286047001.1,N
1511365315.5,286047002.4,N
1511365335.4,286047000.0,N
1511365355.2,286047000.0,N
1511365375.0,286047002.1,N
1511365375.9,286047002.1,N
1511365395.8,286047000.0,N
1511365415.6,286047001.2,N
1511365435.4,286046999.0,N
1511365455.3,286046998.8,N
1511365475.1,286047000.7,N
1511365476.0,286047000.7,N
1511365495.8,286046996.4,N
1511365515.7,286046993.3,N
1511365535.5,286046992.5,N
1511365555.3,286046988.6,N
1511365575.1,286046994.4,N
1511365595.9,286046991.5,N
1511365615.7,286046988.0,N
1511365635.5,286046989.2,N
1511365655.4,286046987.7,N
1511365675.2,286046990.0,N
1511365695.0,286046985.6,N
1511365695.9,286046985.6,N
1511365715.8,286046984.5,N
1511365735.6,286046981.7,Y
1511365755.4,286046984.7,P
1511365775.3,286046983.9,N
1511365795.1,286046984.2,N
1511365815.8,286046985.8,N
1511365835.7,286046986.3,N
1511365855.5,286046986.2,Y
1511365875.3,286046997.9,P
1511365895.2,286046998.0,N
1511365915.9,286047001.2,N
1511365935.7,286046998.7,N
1511365955.6,286046998.4,N
1511365975.4,286046998.4,N
1511365995.2,286047002.4,N
1511366015.1,286047002.8,N
1511366016.0,286047002.8,N
1511366035.8,286047002.5,N
1511366055.6,286047003.8,N
1511366075.5,286047001.4,N
1511366095.3,286047002.6,N
1511366115.1,286047003.7,N
1511366135.8,286047003.6,N
1511366155.7,286047000.1,N
1511366175.5,286047002.0,N
1511366195.3,286047002.7,N
1511366215.2,286047000.5,N
1511366235.9,286047000.6,N
1511366255.7,286047002.2,N
1511366275.6,286047002.2,N
1511366295.4,286047002.6,N
1511366315.2,286047004.3,N
1511366335.1,286047001.7,N
1511366336.0,286047001.7,N
1511366355.8,286047001.4,N
1511366375.6,286047004.2,N
1511366395.4,286047007.1,N
